Year,Month,Day,Hour,Minute,Value (Times are PST for temperature in C)
2013,09,11,00,00,15.60
2013,09,11,00,01,15.60
2013,09,11,00,02,15.50
2013,09,11,00,03,15.50
2013,09,11,00,04,15.50
2013,09,11,00,05,15.50
2013,09,11,00,06,15.50
2013,09,11,00,07,15.50
2013,09,11,00,08,15.50
2013,09,11,00,09,15.40
2013,09,11,00,10,15.40
2013,09,11,00,11,15.40
2013,09,11,00,12,15.40
2013,09,11,00,13,15.40
2013,09,11,00,14,15.40
2013,09,11,00,15,15.30
2013,09,11,00,16,15.30
2013,09,11,00,17,15.30
2013,09,11,00,18,15.30
2013,09,11,00,19,15.30
2013,09,11,00,20,15.30
2013,09,11,00,21,15.30
2013,09,11,00,22,15.30
2013,09,11,00,23,15.30
2013,09,11,00,24,15.30
2013,09,11,00,25,15.30
2013,09,11,00,26,15.30
2013,09,11,00,27,15.30
2013,09,11,00,28,15.30
2013,09,11,00,29,15.30
2013,09,11,00,30,15.30
2013,09,11,00,31,15.20
2013,09,11,00,32,15.20
2013,09,11,00,33,15.20
2013,09,11,00,34,15.20
2013,09,11,00,35,15.20
2013,09,11,00,36,15.20
2013,09,11,00,37,15.20
2013,09,11,00,38,15.20
2013,09,11,00,39,15.20
2013,09,11,00,40,15.10
2013,09,11,00,41,15.10
2013,09,11,00,42,15.10
2013,09,11,00,43,15.10
2013,09,11,00,44,15.10
2013,09,11,00,45,15.00
2013,09,11,00,46,15.00
2013,09,11,00,47,15.00
2013,09,11,00,48,15.00
2013,09,11,00,49,15.00
2013,09,11,00,50,14.90
2013,09,11,00,51,14.90
2013,09,11,00,52,14.90
2013,09,11,00,53,14.90
2013,09,11,00,54,14.90
2013,09,11,00,55,14.90
2013,09,11,00,56,14.90
2013,09,11,00,57,14.90
2013,09,11,00,58,14.90
2013,09,11,00,59,14.90
2013,09,11,01,00,14.90
2013,09,11,01,01,14.90
2013,09,11,01,02,14.90
2013,09,11,01,03,14.90
2013,09,11,01,04,14.80
2013,09,11,01,05,14.80
2013,09,11,01,06,14.80
2013,09,11,01,07,14.80
2013,09,11,01,08,14.80
2013,09,11,01,09,14.80
2013,09,11,01,10,14.80
2013,09,11,01,11,14.70
2013,09,11,01,12,14.70
2013,09,11,01,13,14.70
2013,09,11,01,14,14.70
2013,09,11,01,15,14.70
2013,09,11,01,16,14.70
2013,09,11,01,17,14.70
2013,09,11,01,18,14.70
2013,09,11,01,19,14.70
2013,09,11,01,20,14.70
2013,09,11,01,21,14.70
2013,09,11,01,22,14.60
2013,09,11,01,23,14.60
2013,09,11,01,24,14.60
2013,09,11,01,25,14.60
2013,09,11,01,26,14.60
2013,09,11,01,27,14.60
2013,09,11,01,28,14.60
2013,09,11,01,29,14.60
2013,09,11,01,30,14.60
2013,09,11,01,31,14.60
2013,09,11,01,32,14.60
2013,09,11,01,33,14.60
2013,09,11,01,34,14.60
2013,09,11,01,35,14.60
2013,09,11,01,36,14.60
2013,09,11,01,37,14.60
2013,09,11,01,38,14.60
2013,09,11,01,39,14.60
2013,09,11,01,40,14.60
2013,09,11,01,41,14.60
2013,09,11,01,42,14.60
2013,09,11,01,43,14.60
2013,09,11,01,44,14.60
2013,09,11,01,45,14.60
2013,09,11,01,46,14.50
2013,09,11,01,47,14.50
2013,09,11,01,48,14.50
2013,09,11,01,49,14.50
2013,09,11,01,50,14.50
2013,09,11,01,51,14.40
2013,09,11,01,52,14.40
2013,09,11,01,53,14.40
2013,09,11,01,54,14.40
2013,09,11,01,55,14.40
2013,09,11,01,56,14.40
2013,09,11,01,57,14.40
2013,09,11,01,58,14.40
2013,09,11,01,59,14.40
2013,09,11,02,00,14.40
2013,09,11,02,01,14.40
2013,09,11,02,02,14.40
2013,09,11,02,03,14.40
2013,09,11,02,04,14.40
2013,09,11,02,05,14.30
2013,09,11,02,06,14.30
2013,09,11,02,07,14.30
2013,09,11,02,08,14.30
2013,09,11,02,09,14.30
2013,09,11,02,10,14.30
2013,09,11,02,11,14.30
2013,09,11,02,12,14.30
2013,09,11,02,13,14.30
2013,09,11,02,14,14.30
2013,09,11,02,15,14.30
2013,09,11,02,16,14.30
2013,09,11,02,17,14.30
2013,09,11,02,18,14.30
2013,09,11,02,19,14.30
2013,09,11,02,20,14.30
2013,09,11,02,21,14.30
2013,09,11,02,22,14.30
2013,09,11,02,23,14.30
2013,09,11,02,24,14.30
2013,09,11,02,25,14.30
2013,09,11,02,26,14.20
2013,09,11,02,27,14.20
2013,09,11,02,28,14.20
2013,09,11,02,29,14.20
2013,09,11,02,30,14.20
2013,09,11,02,31,14.20
2013,09,11,02,32,14.20
2013,09,11,02,33,14.20
2013,09,11,02,34,14.20
2013,09,11,02,35,14.20
2013,09,11,02,36,14.20
2013,09,11,02,37,14.20
2013,09,11,02,38,14.20
2013,09,11,02,39,14.20
2013,09,11,02,40,14.20
2013,09,11,02,41,14.20
2013,09,11,02,42,14.20
2013,09,11,02,43,14.20
2013,09,11,02,44,14.20
2013,09,11,02,45,14.20
2013,09,11,02,46,14.20
2013,09,11,02,47,14.30
2013,09,11,02,48,14.30
2013,09,11,02,49,14.30
2013,09,11,02,50,14.30
2013,09,11,02,51,14.30
2013,09,11,02,52,14.20
2013,09,11,02,53,14.20
2013,09,11,02,54,14.20
2013,09,11,02,55,14.20
2013,09,11,02,56,14.20
2013,09,11,02,57,14.20
2013,09,11,02,58,14.20
2013,09,11,02,59,14.20
2013,09,11,03,00,14.20
2013,09,11,03,01,14.20
2013,09,11,03,02,14.20
2013,09,11,03,03,14.20
2013,09,11,03,04,14.20
2013,09,11,03,05,14.20
2013,09,11,03,06,14.20
2013,09,11,03,07,14.20
2013,09,11,03,08,14.20
2013,09,11,03,09,14.20
2013,09,11,03,10,14.20
2013,09,11,03,11,14.20
2013,09,11,03,12,14.20
2013,09,11,03,13,14.20
2013,09,11,03,14,14.20
2013,09,11,03,15,14.20
2013,09,11,03,16,14.20
2013,09,11,03,17,14.20
2013,09,11,03,18,14.20
2013,09,11,03,19,14.20
2013,09,11,03,20,14.20
2013,09,11,03,21,14.20
2013,09,11,03,22,14.20
2013,09,11,03,23,14.20
2013,09,11,03,24,14.20
2013,09,11,03,25,14.20
2013,09,11,03,26,14.20
2013,09,11,03,27,14.10
2013,09,11,03,28,14.10
2013,09,11,03,29,14.10
2013,09,11,03,30,14.10
2013,09,11,03,31,14.10
2013,09,11,03,32,14.10
2013,09,11,03,33,14.10
2013,09,11,03,34,14.20
2013,09,11,03,35,14.20
2013,09,11,03,36,14.20
2013,09,11,03,37,14.20
2013,09,11,03,38,14.20
2013,09,11,03,39,14.20
2013,09,11,03,40,14.20
2013,09,11,03,41,14.20
2013,09,11,03,42,14.20
2013,09,11,03,43,14.20
2013,09,11,03,44,14.20
2013,09,11,03,45,14.20
2013,09,11,03,46,14.20
2013,09,11,03,47,14.20
2013,09,11,03,48,14.20
2013,09,11,03,49,14.10
2013,09,11,03,50,14.10
2013,09,11,03,51,14.10
2013,09,11,03,52,14.10
2013,09,11,03,53,14.10
2013,09,11,03,54,14.10
2013,09,11,03,55,14.10
2013,09,11,03,56,14.10
2013,09,11,03,57,14.10
2013,09,11,03,58,14.10
2013,09,11,03,59,14.10
2013,09,11,04,00,14.10
2013,09,11,04,01,14.10
2013,09,11,04,02,14.10
2013,09,11,04,03,14.10
2013,09,11,04,04,14.10
2013,09,11,04,05,14.10
2013,09,11,04,06,14.10
2013,09,11,04,07,14.10
2013,09,11,04,08,14.10
2013,09,11,04,09,14.10
2013,09,11,04,10,14.10
2013,09,11,04,11,14.10
2013,09,11,04,12,14.10
2013,09,11,04,13,14.10
2013,09,11,04,14,14.10
2013,09,11,04,15,14.10
2013,09,11,04,16,14.10
2013,09,11,04,17,14.10
2013,09,11,04,18,14.10
2013,09,11,04,19,14.10
2013,09,11,04,20,14.10
2013,09,11,04,21,14.10
2013,09,11,04,22,14.10
2013,09,11,04,23,14.10
2013,09,11,04,24,14.10
2013,09,11,04,25,14.10
2013,09,11,04,26,14.10
2013,09,11,04,27,14.10
2013,09,11,04,28,14.10
2013,09,11,04,29,14.10
2013,09,11,04,30,14.10
2013,09,11,04,31,14.10
2013,09,11,04,32,14.20
2013,09,11,04,33,14.20
2013,09,11,04,34,14.20
2013,09,11,04,35,14.20
2013,09,11,04,36,14.20
2013,09,11,04,37,14.20
2013,09,11,04,38,14.20
2013,09,11,04,39,14.20
2013,09,11,04,40,14.20
2013,09,11,04,41,14.20
2013,09,11,04,42,14.20
2013,09,11,04,43,14.20
2013,09,11,04,44,14.20
2013,09,11,04,45,14.20
2013,09,11,04,46,14.20
2013,09,11,04,47,14.20
2013,09,11,04,48,14.20
2013,09,11,04,49,14.20
2013,09,11,04,50,14.20
2013,09,11,04,51,14.20
2013,09,11,04,52,14.20
2013,09,11,04,53,14.20
2013,09,11,04,54,14.10
2013,09,11,04,55,14.20
2013,09,11,04,56,14.20
2013,09,11,04,57,14.20
2013,09,11,04,58,14.20
2013,09,11,04,59,14.20
2013,09,11,05,00,14.20
2013,09,11,05,01,14.20
2013,09,11,05,02,14.20
2013,09,11,05,03,14.20
2013,09,11,05,04,14.20
2013,09,11,05,05,14.20
2013,09,11,05,06,14.20
2013,09,11,05,07,14.20
2013,09,11,05,08,14.20
2013,09,11,05,09,14.20
2013,09,11,05,10,14.20
2013,09,11,05,11,14.20
2013,09,11,05,12,14.20
2013,09,11,05,13,14.20
2013,09,11,05,14,14.20
2013,09,11,05,15,14.20
2013,09,11,05,16,14.20
2013,09,11,05,17,14.20
2013,09,11,05,18,14.20
2013,09,11,05,19,14.20
2013,09,11,05,20,14.20
2013,09,11,05,21,14.10
2013,09,11,05,22,14.10
2013,09,11,05,23,14.10
2013,09,11,05,24,14.10
2013,09,11,05,25,14.10
2013,09,11,05,26,14.10
2013,09,11,05,27,14.10
2013,09,11,05,28,14.10
2013,09,11,05,29,14.10
2013,09,11,05,30,14.10
2013,09,11,05,31,14.10
2013,09,11,05,32,14.10
2013,09,11,05,33,14.10
2013,09,11,05,34,14.10
2013,09,11,05,35,14.10
2013,09,11,05,36,14.10
2013,09,11,05,37,14.10
2013,09,11,05,38,14.10
2013,09,11,05,39,14.10
2013,09,11,05,40,14.10
2013,09,11,05,41,14.10
2013,09,11,05,42,14.10
2013,09,11,05,43,14.10
2013,09,11,05,44,14.20
2013,09,11,05,45,14.20
2013,09,11,05,46,14.20
2013,09,11,05,47,14.20
2013,09,11,05,48,14.20
2013,09,11,05,49,14.20
2013,09,11,05,50,14.20
2013,09,11,05,51,14.20
2013,09,11,05,52,14.20
2013,09,11,05,53,14.20
2013,09,11,05,54,14.20
2013,09,11,05,55,14.20
2013,09,11,05,56,14.20
2013,09,11,05,57,14.20
2013,09,11,05,58,14.20
2013,09,11,05,59,14.20
2013,09,11,06,00,14.20
2013,09,11,06,01,14.20
2013,09,11,06,02,14.20
2013,09,11,06,03,14.20
2013,09,11,06,04,14.20
2013,09,11,06,05,14.20
2013,09,11,06,06,14.20
2013,09,11,06,07,14.30
2013,09,11,06,08,14.30
2013,09,11,06,09,14.30
2013,09,11,06,10,14.30
2013,09,11,06,11,14.30
2013,09,11,06,12,14.30
2013,09,11,06,13,14.30
2013,09,11,06,14,14.30
2013,09,11,06,15,14.30
2013,09,11,06,16,14.30
2013,09,11,06,17,14.30
2013,09,11,06,18,14.30
2013,09,11,06,19,14.30
2013,09,11,06,20,14.30
2013,09,11,06,21,14.30
2013,09,11,06,22,14.30
2013,09,11,06,23,14.30
2013,09,11,06,24,14.30
2013,09,11,06,25,14.30
2013,09,11,06,26,14.30
2013,09,11,06,27,14.30
2013,09,11,06,28,14.30
2013,09,11,06,29,14.20
2013,09,11,06,30,14.20
2013,09,11,06,31,14.20
2013,09,11,06,32,14.20
2013,09,11,06,33,14.20
2013,09,11,06,34,14.20
2013,09,11,06,35,14.20
2013,09,11,06,36,14.20
2013,09,11,06,37,14.20
2013,09,11,06,38,14.20
2013,09,11,06,39,14.20
2013,09,11,06,40,14.20
2013,09,11,06,41,14.20
2013,09,11,06,42,14.20
2013,09,11,06,43,14.20
2013,09,11,06,44,14.20
2013,09,11,06,45,14.20
2013,09,11,06,46,14.20
2013,09,11,06,47,14.20
2013,09,11,06,48,14.20
2013,09,11,06,49,14.20
2013,09,11,06,50,14.20
2013,09,11,06,51,14.20
2013,09,11,06,52,14.20
2013,09,11,06,53,14.20
2013,09,11,06,54,14.20
2013,09,11,06,55,14.20
2013,09,11,06,56,14.20
2013,09,11,06,57,14.20
2013,09,11,06,58,14.20
2013,09,11,06,59,14.20
2013,09,11,07,00,14.20
2013,09,11,07,01,14.20
2013,09,11,07,02,14.20
2013,09,11,07,03,14.20
2013,09,11,07,04,14.30
2013,09,11,07,05,14.20
2013,09,11,07,06,14.20
2013,09,11,07,07,14.20
2013,09,11,07,08,14.30
2013,09,11,07,09,14.30
2013,09,11,07,10,14.30
2013,09,11,07,11,14.30
2013,09,11,07,12,14.30
2013,09,11,07,13,14.30
2013,09,11,07,14,14.30
2013,09,11,07,15,14.30
2013,09,11,07,16,14.30
2013,09,11,07,17,14.40
2013,09,11,07,18,14.40
2013,09,11,07,19,14.40
2013,09,11,07,20,14.40
2013,09,11,07,21,14.40
2013,09,11,07,22,14.40
2013,09,11,07,23,14.40
2013,09,11,07,24,14.40
2013,09,11,07,25,14.40
2013,09,11,07,26,14.40
2013,09,11,07,27,14.40
2013,09,11,07,28,14.50
2013,09,11,07,29,14.50
2013,09,11,07,30,14.50
2013,09,11,07,31,14.50
2013,09,11,07,32,14.50
2013,09,11,07,33,14.50
2013,09,11,07,34,14.50
2013,09,11,07,35,14.50
2013,09,11,07,36,14.50
2013,09,11,07,37,14.60
2013,09,11,07,38,14.60
2013,09,11,07,39,14.60
2013,09,11,07,40,14.60
2013,09,11,07,41,14.60
2013,09,11,07,42,14.60
2013,09,11,07,43,14.70
2013,09,11,07,44,14.70
2013,09,11,07,45,14.70
2013,09,11,07,46,14.70
2013,09,11,07,47,14.70
2013,09,11,07,48,14.70
2013,09,11,07,49,14.70
2013,09,11,07,50,14.70
2013,09,11,07,51,14.80
2013,09,11,07,52,14.80
2013,09,11,07,53,14.80
2013,09,11,07,54,14.90
2013,09,11,07,55,14.90
2013,09,11,07,56,14.90
2013,09,11,07,57,15.00
2013,09,11,07,58,15.00
2013,09,11,07,59,15.00
2013,09,11,08,00,15.10
2013,09,11,08,01,15.10
2013,09,11,08,02,15.10
2013,09,11,08,03,15.20
2013,09,11,08,04,15.20
2013,09,11,08,05,15.30
2013,09,11,08,06,15.30
2013,09,11,08,07,15.30
2013,09,11,08,08,15.40
2013,09,11,08,09,15.50
2013,09,11,08,10,15.50
2013,09,11,08,11,15.60
2013,09,11,08,12,15.60
2013,09,11,08,13,15.70
2013,09,11,08,14,15.70
2013,09,11,08,15,15.80
2013,09,11,08,16,15.80
2013,09,11,08,17,15.90
2013,09,11,08,18,15.90
2013,09,11,08,19,16.00
2013,09,11,08,20,16.00
2013,09,11,08,21,16.10
2013,09,11,08,22,16.10
2013,09,11,08,23,16.20
2013,09,11,08,24,16.30
2013,09,11,08,25,16.30
2013,09,11,08,26,16.40
2013,09,11,08,27,16.50
2013,09,11,08,28,16.60
2013,09,11,08,29,16.70
2013,09,11,08,30,16.70
2013,09,11,08,31,16.80
2013,09,11,08,32,16.90
2013,09,11,08,33,16.90
2013,09,11,08,34,17.00
2013,09,11,08,35,17.10
2013,09,11,08,36,17.10
2013,09,11,08,37,17.20
2013,09,11,08,38,17.30
2013,09,11,08,39,17.40
2013,09,11,08,40,17.50
2013,09,11,08,41,17.60
2013,09,11,08,42,17.70
2013,09,11,08,43,17.90
2013,09,11,08,44,18.00
2013,09,11,08,45,18.20
2013,09,11,08,46,18.30
2013,09,11,08,47,18.40
2013,09,11,08,48,18.60
2013,09,11,08,49,18.70
2013,09,11,08,50,18.80
2013,09,11,08,51,19.00
2013,09,11,08,52,19.10
2013,09,11,08,53,19.20
2013,09,11,08,54,19.30
2013,09,11,08,55,19.50
2013,09,11,08,56,19.60
2013,09,11,08,57,19.70
2013,09,11,08,58,19.90
2013,09,11,08,59,20.00
2013,09,11,09,00,20.10
2013,09,11,09,01,20.30
2013,09,11,09,02,20.40
2013,09,11,09,03,20.50
2013,09,11,09,04,20.60
2013,09,11,09,05,20.70
2013,09,11,09,06,20.90
2013,09,11,09,07,21.10
2013,09,11,09,08,21.20
2013,09,11,09,09,21.30
2013,09,11,09,10,21.40
2013,09,11,09,11,21.50
2013,09,11,09,12,21.50
2013,09,11,09,13,21.60
2013,09,11,09,14,21.60
2013,09,11,09,15,21.70
2013,09,11,09,16,21.70
2013,09,11,09,17,21.70
2013,09,11,09,18,21.70
2013,09,11,09,19,21.80
2013,09,11,09,20,21.80
2013,09,11,09,21,21.90
2013,09,11,09,22,21.90
2013,09,11,09,23,21.90
2013,09,11,09,24,21.90
2013,09,11,09,25,21.90
2013,09,11,09,26,22.00
2013,09,11,09,27,22.10
2013,09,11,09,28,22.10
2013,09,11,09,29,22.10
2013,09,11,09,30,22.10
2013,09,11,09,31,22.20
2013,09,11,09,32,22.20
2013,09,11,09,33,22.30
2013,09,11,09,34,22.40
2013,09,11,09,35,22.50
2013,09,11,09,36,22.70
2013,09,11,09,37,23.00
2013,09,11,09,38,23.10
2013,09,11,09,39,23.20
2013,09,11,09,40,23.30
2013,09,11,09,41,23.30
2013,09,11,09,42,23.40
2013,09,11,09,43,23.50
2013,09,11,09,44,23.60
2013,09,11,09,45,23.70
2013,09,11,09,46,23.80
2013,09,11,09,47,23.90
2013,09,11,09,48,23.90
2013,09,11,09,49,23.90
2013,09,11,09,50,23.90
2013,09,11,09,51,24.00
2013,09,11,09,52,24.00
2013,09,11,09,53,24.10
2013,09,11,09,54,24.10
2013,09,11,09,55,24.10
2013,09,11,09,56,24.20
2013,09,11,09,57,24.20
2013,09,11,09,58,24.30
2013,09,11,09,59,24.30
2013,09,11,10,00,24.40
2013,09,11,10,01,24.40
2013,09,11,10,02,24.50
2013,09,11,10,03,24.50
2013,09,11,10,04,24.60
2013,09,11,10,05,24.70
2013,09,11,10,06,24.70
2013,09,11,10,07,24.70
2013,09,11,10,08,24.70
2013,09,11,10,09,24.70
2013,09,11,10,10,24.80
2013,09,11,10,11,24.80
2013,09,11,10,12,24.90
2013,09,11,10,13,25.00
2013,09,11,10,14,25.00
2013,09,11,10,15,25.10
2013,09,11,10,16,25.10
2013,09,11,10,17,25.10
2013,09,11,10,18,25.20
2013,09,11,10,19,25.30
2013,09,11,10,20,25.30
2013,09,11,10,21,25.30
2013,09,11,10,22,25.40
2013,09,11,10,23,25.40
2013,09,11,10,24,25.50
2013,09,11,10,25,25.50
2013,09,11,10,26,25.50
2013,09,11,10,27,25.50
2013,09,11,10,28,25.50
2013,09,11,10,29,25.40
2013,09,11,10,30,25.40
2013,09,11,10,31,25.40
2013,09,11,10,32,25.40
2013,09,11,10,33,25.50
2013,09,11,10,34,25.50
2013,09,11,10,35,25.50
2013,09,11,10,36,25.50
2013,09,11,10,37,25.60
2013,09,11,10,38,25.60
2013,09,11,10,39,25.60
2013,09,11,10,40,25.50
2013,09,11,10,41,25.50
2013,09,11,10,42,25.50
2013,09,11,10,43,25.50
2013,09,11,10,44,25.50
2013,09,11,10,45,25.50
2013,09,11,10,46,25.50
2013,09,11,10,47,25.50
2013,09,11,10,48,25.50
2013,09,11,10,49,25.40
2013,09,11,10,50,25.50
2013,09,11,10,51,25.50
2013,09,11,10,52,25.60
2013,09,11,10,53,25.70
2013,09,11,10,54,25.70
2013,09,11,10,55,25.80
2013,09,11,10,56,25.80
2013,09,11,10,57,25.80
2013,09,11,10,58,25.90
2013,09,11,10,59,25.90
2013,09,11,11,00,25.90
2013,09,11,11,01,26.00
2013,09,11,11,02,26.00
2013,09,11,11,03,26.10
2013,09,11,11,04,26.10
2013,09,11,11,05,26.10
2013,09,11,11,06,26.10
2013,09,11,11,07,26.20
2013,09,11,11,08,26.20
2013,09,11,11,09,26.20
2013,09,11,11,10,26.20
2013,09,11,11,11,26.20
2013,09,11,11,12,26.30
2013,09,11,11,13,26.30
2013,09,11,11,14,26.30
2013,09,11,11,15,26.30
2013,09,11,11,16,26.30
2013,09,11,11,17,26.30
2013,09,11,11,18,26.40
2013,09,11,11,19,26.40
2013,09,11,11,20,26.50
2013,09,11,11,21,26.50
2013,09,11,11,22,26.60
2013,09,11,11,23,26.60
2013,09,11,11,24,26.70
2013,09,11,11,25,26.70
2013,09,11,11,26,26.80
2013,09,11,11,27,26.80
2013,09,11,11,28,26.80
2013,09,11,11,29,26.90
2013,09,11,11,30,26.90
2013,09,11,11,31,27.00
2013,09,11,11,32,27.00
2013,09,11,11,33,27.10
2013,09,11,11,34,27.10
2013,09,11,11,35,27.20
2013,09,11,11,36,27.20
2013,09,11,11,37,27.20
2013,09,11,11,38,27.20
2013,09,11,11,39,27.20
2013,09,11,11,40,27.20
2013,09,11,11,41,27.20
2013,09,11,11,42,27.20
2013,09,11,11,43,27.30
2013,09,11,11,44,27.40
2013,09,11,11,45,27.40
2013,09,11,11,46,27.40
2013,09,11,11,47,27.40
2013,09,11,11,48,27.40
2013,09,11,11,49,27.40
2013,09,11,11,50,27.50
2013,09,11,11,51,27.50
2013,09,11,11,52,27.50
2013,09,11,11,53,27.60
2013,09,11,11,54,27.60
2013,09,11,11,55,27.60
2013,09,11,11,56,27.70
2013,09,11,11,57,27.70
2013,09,11,11,58,27.80
2013,09,11,11,59,27.80
2013,09,11,12,00,27.80
2013,09,11,12,01,27.80
2013,09,11,12,02,27.70
2013,09,11,12,03,27.70
2013,09,11,12,04,27.70
2013,09,11,12,05,27.70
2013,09,11,12,06,27.80
2013,09,11,12,07,27.80
2013,09,11,12,08,27.80
2013,09,11,12,09,27.80
2013,09,11,12,10,27.80
2013,09,11,12,11,27.80
2013,09,11,12,12,27.80
2013,09,11,12,13,27.90
2013,09,11,12,14,27.90
2013,09,11,12,15,27.90
2013,09,11,12,16,27.90
2013,09,11,12,17,27.90
2013,09,11,12,18,27.90
2013,09,11,12,19,27.90
2013,09,11,12,20,27.90
2013,09,11,12,21,27.90
2013,09,11,12,22,28.00
2013,09,11,12,23,28.00
2013,09,11,12,24,28.10
2013,09,11,12,25,28.10
2013,09,11,12,26,28.20
2013,09,11,12,27,28.30
2013,09,11,12,28,28.30
2013,09,11,12,29,28.30
2013,09,11,12,30,28.40
2013,09,11,12,31,28.40
2013,09,11,12,32,28.40
2013,09,11,12,33,28.40
2013,09,11,12,34,28.40
2013,09,11,12,35,28.50
2013,09,11,12,36,28.50
2013,09,11,12,37,28.60
2013,09,11,12,38,28.60
2013,09,11,12,39,28.70
2013,09,11,12,40,28.70
2013,09,11,12,41,28.80
2013,09,11,12,42,28.80
2013,09,11,12,43,28.80
2013,09,11,12,44,28.90
2013,09,11,12,45,28.90
2013,09,11,12,46,28.90
2013,09,11,12,47,29.00
2013,09,11,12,48,29.00
2013,09,11,12,49,29.10
2013,09,11,12,50,29.10
2013,09,11,12,51,29.20
2013,09,11,12,52,29.20
2013,09,11,12,53,29.20
2013,09,11,12,54,29.20
2013,09,11,12,55,29.30
2013,09,11,12,58,29.40
2013,09,11,12,59,29.40
2013,09,11,13,00,29.50
2013,09,11,13,02,29.50
2013,09,11,13,03,29.50
2013,09,11,13,04,29.50
2013,09,11,13,05,29.50
2013,09,11,13,06,29.50
2013,09,11,13,07,29.60
2013,09,11,13,08,29.60
2013,09,11,13,09,29.70
2013,09,11,13,10,29.70
2013,09,11,13,11,29.80
2013,09,11,13,12,29.90
2013,09,11,13,13,29.90
2013,09,11,13,14,29.90
2013,09,11,13,15,29.90
2013,09,11,13,16,29.90
2013,09,11,13,17,29.90
2013,09,11,13,18,29.90
2013,09,11,13,19,29.80
2013,09,11,13,20,29.80
2013,09,11,13,21,29.80
2013,09,11,13,22,29.80
2013,09,11,13,23,29.80
2013,09,11,13,24,29.90
2013,09,11,13,25,29.90
2013,09,11,13,26,29.90
2013,09,11,14,16,30.70
2013,09,11,14,17,30.70
2013,09,11,14,18,30.80
2013,09,11,14,19,30.80
2013,09,11,14,20,30.80
2013,09,11,14,21,30.80
2013,09,11,14,22,30.80
2013,09,11,14,23,30.90
2013,09,11,14,24,30.90
2013,09,11,14,25,31.00
2013,09,11,14,26,31.10
2013,09,11,14,27,31.10
2013,09,11,14,28,31.10
2013,09,11,14,29,31.20
2013,09,11,14,30,31.20
2013,09,11,14,31,31.30
2013,09,11,14,32,31.30
2013,09,11,14,33,31.40
2013,09,11,14,34,31.40
2013,09,11,14,35,31.40
2013,09,11,14,36,31.40
2013,09,11,14,37,31.40
2013,09,11,14,38,31.50
2013,09,11,14,39,31.50
2013,09,11,14,40,31.40
2013,09,11,14,41,31.30
2013,09,11,14,42,31.30
2013,09,11,14,43,31.30
2013,09,11,14,44,31.30
2013,09,11,14,45,31.30
2013,09,11,14,46,31.40
2013,09,11,14,47,31.50
2013,09,11,14,48,31.50
2013,09,11,14,49,31.60
2013,09,11,14,50,31.60
2013,09,11,14,51,31.60
2013,09,11,14,52,31.70
2013,09,11,14,53,31.70
2013,09,11,14,54,31.70
2013,09,11,14,55,31.80
2013,09,11,14,56,31.70
2013,09,11,14,57,31.70
2013,09,11,14,58,31.70
2013,09,11,14,59,31.70
2013,09,11,15,00,31.70
2013,09,11,15,01,31.60
2013,09,11,15,02,31.50
2013,09,11,15,03,31.50
2013,09,11,15,04,31.50
2013,09,11,15,05,31.40
2013,09,11,15,06,31.40
2013,09,11,15,07,31.30
2013,09,11,15,08,31.30
2013,09,11,15,09,31.30
2013,09,11,15,10,31.30
2013,09,11,15,11,31.20
2013,09,11,15,12,31.20
2013,09,11,15,13,31.20
2013,09,11,15,14,31.20
2013,09,11,15,15,31.20
2013,09,11,15,16,31.20
2013,09,11,15,17,31.20
2013,09,11,15,18,31.20
2013,09,11,15,19,31.20
2013,09,11,15,20,31.30
2013,09,11,15,21,31.30
2013,09,11,15,22,31.20
2013,09,11,15,23,31.20
2013,09,11,15,24,31.20
2013,09,11,15,25,31.20
2013,09,11,15,26,31.10
2013,09,11,15,27,30.90
2013,09,11,15,28,30.70
2013,09,11,15,29,30.50
2013,09,11,15,30,30.40
2013,09,11,15,31,30.20
2013,09,11,15,32,30.10
2013,09,11,15,33,30.00
2013,09,11,15,34,29.90
2013,09,11,15,35,29.80
2013,09,11,15,36,29.70
2013,09,11,15,37,29.50
2013,09,11,15,38,29.40
2013,09,11,15,39,29.30
2013,09,11,15,40,29.20
2013,09,11,15,41,29.00
2013,09,11,15,42,28.90
2013,09,11,15,43,28.90
2013,09,11,15,44,28.80
2013,09,11,15,45,28.70
2013,09,11,15,46,28.70
2013,09,11,15,47,28.60
2013,09,11,15,48,28.60
2013,09,11,15,49,28.60
2013,09,11,15,50,28.60
2013,09,11,15,51,28.60
2013,09,11,15,52,28.60
2013,09,11,15,53,28.60
2013,09,11,15,54,28.60
2013,09,11,15,55,28.60
2013,09,11,15,56,28.60
2013,09,11,15,57,28.60
2013,09,11,15,58,28.60
2013,09,11,15,59,28.60
2013,09,11,16,00,28.60
2013,09,11,16,01,28.60
2013,09,11,16,02,28.60
2013,09,11,16,03,28.60
2013,09,11,16,04,28.70
2013,09,11,16,05,28.70
2013,09,11,16,06,28.70
2013,09,11,16,07,28.70
2013,09,11,16,08,28.70
2013,09,11,16,09,28.70
2013,09,11,16,10,28.70
2013,09,11,16,11,28.70
2013,09,11,16,12,28.70
2013,09,11,16,13,28.70
2013,09,11,16,14,28.70
2013,09,11,16,15,28.70
2013,09,11,16,16,28.70
2013,09,11,16,17,28.70
2013,09,11,16,18,28.70
2013,09,11,16,19,28.80
2013,09,11,16,20,28.80
2013,09,11,16,21,28.80
2013,09,11,16,22,28.80
2013,09,11,16,23,28.80
2013,09,11,16,24,28.80
2013,09,11,16,25,28.80
2013,09,11,16,26,28.70
2013,09,11,16,27,28.70
2013,09,11,16,28,28.60
2013,09,11,16,29,28.50
2013,09,11,16,30,28.50
2013,09,11,16,31,28.40
2013,09,11,16,32,28.30
2013,09,11,16,33,28.30
2013,09,11,16,34,28.30
2013,09,11,16,35,28.30
2013,09,11,16,36,28.30
2013,09,11,16,37,28.20
2013,09,11,16,38,28.10
2013,09,11,16,39,28.00
2013,09,11,16,40,28.00
2013,09,11,16,41,27.90
2013,09,11,16,42,27.80
2013,09,11,16,43,27.80
2013,09,11,16,44,27.80
2013,09,11,16,45,27.70
2013,09,11,16,46,27.70
2013,09,11,16,47,27.70
2013,09,11,16,48,27.70
2013,09,11,16,49,27.70
2013,09,11,16,50,27.80
2013,09,11,16,51,27.80
2013,09,11,16,52,27.80
2013,09,11,16,53,27.90
2013,09,11,16,54,27.90
2013,09,11,16,55,28.00
2013,09,11,16,56,28.10
2013,09,11,16,57,28.10
2013,09,11,16,58,28.20
2013,09,11,16,59,28.20
2013,09,11,17,00,28.20
2013,09,11,17,01,28.30
2013,09,11,17,02,28.30
2013,09,11,17,03,28.20
2013,09,11,17,04,28.20
2013,09,11,17,05,28.20
2013,09,11,17,06,28.10
2013,09,11,17,07,28.10
2013,09,11,17,08,28.00
2013,09,11,17,09,28.00
2013,09,11,17,10,27.90
2013,09,11,17,11,27.90
2013,09,11,17,12,27.80
2013,09,11,17,13,27.70
2013,09,11,17,14,27.70
2013,09,11,17,15,27.70
2013,09,11,17,16,27.60
2013,09,11,17,17,27.50
2013,09,11,17,18,27.50
2013,09,11,17,19,27.40
2013,09,11,17,20,27.40
2013,09,11,17,21,27.30
2013,09,11,17,22,27.20
2013,09,11,17,23,27.20
2013,09,11,17,24,27.10
2013,09,11,17,25,27.00
2013,09,11,17,26,27.00
2013,09,11,17,27,26.90
2013,09,11,17,28,26.80
2013,09,11,17,29,26.80
2013,09,11,17,30,26.80
2013,09,11,17,31,26.70
2013,09,11,17,32,26.70
2013,09,11,17,33,26.70
2013,09,11,17,34,26.60
2013,09,11,17,35,26.50
2013,09,11,17,36,26.50
2013,09,11,17,37,26.50
2013,09,11,17,38,26.40
2013,09,11,17,39,26.30
2013,09,11,17,40,26.20
2013,09,11,17,41,26.10
2013,09,11,17,42,26.00
2013,09,11,17,43,25.90
2013,09,11,17,44,25.90
2013,09,11,17,45,25.80
2013,09,11,17,46,25.70
2013,09,11,17,47,25.60
2013,09,11,17,48,25.50
2013,09,11,17,49,25.40
2013,09,11,17,50,25.40
2013,09,11,17,51,25.30
2013,09,11,17,52,25.30
2013,09,11,17,53,25.20
2013,09,11,17,54,25.20
2013,09,11,17,55,25.10
2013,09,11,17,56,25.10
2013,09,11,17,57,25.00
2013,09,11,17,58,25.00
2013,09,11,17,59,24.90
2013,09,11,18,00,24.90
2013,09,11,18,01,24.90
2013,09,11,18,02,24.90
2013,09,11,18,03,24.80
2013,09,11,18,04,24.80
2013,09,11,18,05,24.80
2013,09,11,18,06,24.80
2013,09,11,18,07,24.80
2013,09,11,18,08,24.70
2013,09,11,18,09,24.70
2013,09,11,18,10,24.70
2013,09,11,18,11,24.70